Weather History for Reading, PA

Change the Weather History Date:

Tuesday, February 12, 2013

  Actual Average Record
Temperature  
Mean Temperature 37 °F 31 °F  
Max Temperature 45 °F 41 °F 72 °F (1999)
Min Temperature 28 °F 22 °F -4 °F (1979)
Degree Days  
Heating Degree Days 28 34  
Month to date heating degree days 427 414  
Since 1 July heating degree days 3226 3539  
Cooling Degree Days 0 0  
Month to date cooling degree days 0 0  
Year to date cooling degree days 0 0  
Moisture  
Dew Point 25 °F    
Average Humidity 60    
Maximum Humidity 75    
Minimum Humidity 45    
Precipitation  
Precipitation 0.00 in 0.09 in 2.30 in (1983)
Month to date precipitation 0.52 1.02  
Year to date precipitation 4.04 4.07  
Sea Level Pressure  
Sea Level Pressure 29.94 in    
Wind  
Wind Speed 12 mph (WNW)    
Max Wind Speed 29 mph    
Max Gust Speed 36 mph    
Visibility 10 miles    
Events      
T = Trace of Precipitation, MM = Missing Value Source: NWS Daily Summary

Daily Weather History Graph

Daily Weather History Graph

Search for Another Location

Airport:

Trip Planner

Search our weather history database for the weather conditions in past years. The results will help you decide how hot, cold, wet, or windy it might be!

Date:

Astronomy

Feb. 12, 2013 Rise Set
Actual Time 7:00 AM EST 5:35 PM EST
Civil Twilight 6:32 AM EST 6:04 PM EST
Nautical Twilight 6:00 AM EST 6:36 PM EST
Astronomical Twilight 5:29 AM EST 7:07 PM EST
Moon 7:56 AM EST (2/12) 8:35 PM EST (2/12)
Length of Visible Light 11h 31m
Length of Day
10h 35m
Waxing Crescent, 7% of the Moon is Illuminated
Feb 12
Waxing Crescent
Feb 17
First Quarter
Feb 25
Full
Mar 4
Last Quarter
Mar 11
New

Hourly Weather History & Observations

Time (EST) Temp. Windchill Dew Point Humidity Pressure Visibility Wind Dir Wind Speed Gust Speed Precip Events Conditions
12:54 AM 42.1 °F 35.7 °F 28.0 °F 58% 29.80 in 10.0 mi NW 11.5 mph - N/A   Mostly Cloudy
1:54 AM 41.0 °F 36.4 °F 28.0 °F 60% 29.83 in 10.0 mi NW 6.9 mph - N/A   Overcast
2:54 AM 41.0 °F 35.2 °F 28.9 °F 62% 29.83 in 10.0 mi WNW 9.2 mph - N/A   Overcast
3:54 AM 41.0 °F 31.4 °F 27.0 °F 57% 29.85 in 10.0 mi WNW 21.9 mph 35.7 mph N/A   Overcast
4:54 AM 41.0 °F 33.9 °F 25.0 °F 53% 29.87 in 10.0 mi WNW 12.7 mph 21.9 mph N/A   Overcast
5:54 AM 39.9 °F 33.4 °F 25.0 °F 55% 29.88 in 10.0 mi WNW 10.4 mph - N/A   Overcast
6:54 AM 39.9 °F 32.5 °F 25.0 °F 55% 29.90 in 10.0 mi WNW 12.7 mph - N/A   Overcast
7:54 AM 41.0 °F 34.3 °F 25.0 °F 53% 29.93 in 10.0 mi West 11.5 mph 19.6 mph N/A   Overcast
8:54 AM 43.0 °F 36.8 °F 25.0 °F 49% 29.94 in 10.0 mi WNW 11.5 mph 19.6 mph N/A   Scattered Clouds
9:35 AM 42.8 °F 34.0 °F 24.8 °F 49% 29.93 in 10.0 mi NW 20.7 mph 26.5 mph N/A   Mostly Cloudy
9:54 AM 43.0 °F 34.2 °F 24.1 °F 47% 29.97 in 10.0 mi WNW 20.7 mph 31.1 mph N/A   Mostly Cloudy
10:54 AM 43.0 °F 34.0 °F 25.0 °F 49% 29.98 in 10.0 mi WNW 21.9 mph 33.4 mph N/A   Clear
11:54 AM 43.0 °F 34.8 °F 24.1 °F 47% 29.99 in 10.0 mi West 18.4 mph 26.5 mph N/A   Scattered Clouds
12:54 PM 44.1 °F 35.9 °F 24.1 °F 45% 29.99 in 10.0 mi WNW 19.6 mph 24.2 mph N/A   Mostly Cloudy
1:54 PM 44.1 °F 36.5 °F 25.0 °F 47% 29.97 in 15.0 mi NW 17.3 mph 25.3 mph N/A   Mostly Cloudy
2:54 PM 43.0 °F 34.5 °F 24.1 °F 47% 29.97 in 10.0 mi WNW 19.6 mph 29.9 mph N/A   Scattered Clouds
3:54 PM 41.0 °F 32.8 °F 23.0 °F 49% 29.90 in 10.0 mi WNW 16.1 mph 20.7 mph N/A   Clear
4:54 PM 39.9 °F 32.1 °F 23.0 °F 51% 29.98 in 10.0 mi West 13.8 mph 19.6 mph N/A   Partly Cloudy
5:54 PM 37.0 °F 31.6 °F 23.0 °F 57% 30.00 in 10.0 mi NNW 6.9 mph - N/A   Clear
6:54 PM 35.1 °F 28.6 °F 23.0 °F 61% 30.01 in 10.0 mi NNW 8.1 mph - N/A   Clear
7:54 PM 34.0 °F - 23.0 °F 64% 29.99 in 10.0 mi Calm Calm - N/A   Clear
8:54 PM 33.1 °F - 23.0 °F 66% 29.96 in 10.0 mi Calm Calm - N/A   Clear
9:54 PM 28.9 °F 25.2 °F 21.9 °F 75% 29.96 in 10.0 mi WSW 3.5 mph - N/A   Clear
10:54 PM 30.0 °F - 23.0 °F 75% 29.98 in 10.0 mi Calm Calm - N/A   Clear
11:54 PM 30.0 °F 26.5 °F 23.0 °F 75% 29.98 in 10.0 mi WSW 3.5 mph - N/A   Clear